Weather History for Wausau, WI

Change the Weather History Date:

Thursday, October 4, 2012

  Actual Average Record
Temperature  
Mean Temperature 52 °F 50 °F  
Max Temperature 62 °F 61 °F 82 °F (1922)
Min Temperature 41 °F 40 °F 25 °F (1935)
Degree Days  
Heating Degree Days 13 15  
Month to date heating degree days 39 56  
Since 1 July heating degree days 309 349  
Cooling Degree Days 0 0  
Month to date cooling degree days 0 0  
Year to date cooling degree days 725 405  
Growing Degree Days 2 (Base 50)    
Moisture  
Dew Point 39 °F    
Average Humidity 66    
Maximum Humidity 93    
Minimum Humidity 39    
Precipitation  
Precipitation 0.00 in 0.11 in 2.03 in (1942)
Month to date precipitation 0.00 0.45  
Year to date precipitation 21.09 26.56  
Snow  
Snow 0.00 in 0.10 in 0.00 in ()
Month to date snowfall 0.0 0.1  
Since 1 July snowfall 0.0 0.1  
Snow Depth 0.00 in    
Sea Level Pressure  
Sea Level Pressure 29.94 in    
Wind  
Wind Speed 13 mph (SW)    
Max Wind Speed 28 mph    
Max Gust Speed 38 mph    
Visibility 10 miles    
Events      
T = Trace of Precipitation, MM = Missing Value Source: NWS Daily Summary

Daily Weather History Graph

Daily Weather History Graph

Search for Another Location

Airport:

Trip Planner

Search our weather history database for the weather conditions in past years. The results will help you decide how hot, cold, wet, or windy it might be!

Date:

Astronomy

Oct. 04, 2012 Rise Set
Actual Time 7:00 AM CDT 6:32 PM CDT
Civil Twilight 6:31 AM CDT 7:01 PM CDT
Nautical Twilight 5:57 AM CDT 7:35 PM CDT
Astronomical Twilight 5:23 AM CDT 8:09 PM CDT
Moon 8:56 PM CDT (10/4) 11:29 AM CDT (10/4)
Length of Visible Light 12h 30m
Length of Day
11h 31m
Waning Gibbous, 82% of the Moon is Illuminated
Oct 4
Waning Gibbous
Oct 8
Last Quarter
Oct 15
New
Oct 21
First Quarter
Oct 29
Full

Hourly Weather History & Observations

Time (CDT) Temp. Windchill Dew Point Humidity Pressure Visibility Wind Dir Wind Speed Gust Speed Precip Events Conditions
12:54 AM 48.9 °F - 44.1 °F 83% 29.98 in 10.0 mi SE 4.6 mph - N/A   Clear
1:54 AM 46.9 °F - 44.1 °F 90% 29.97 in 10.0 mi East 5.8 mph - N/A   Clear
2:54 AM 46.9 °F - 45.0 °F 93% 29.95 in 10.0 mi East 4.6 mph - N/A   Clear
3:54 AM 46.0 °F 43.1 °F 44.1 °F 93% 29.94 in 10.0 mi East 5.8 mph - N/A   Clear
4:54 AM 45.0 °F 41.2 °F 43.0 °F 93% 29.93 in 10.0 mi ESE 6.9 mph - N/A   Clear
5:54 AM 44.1 °F 41.5 °F 43.0 °F 96% 29.92 in 10.0 mi ESE 4.6 mph - N/A   Clear
6:54 AM 45.0 °F 41.8 °F 42.1 °F 90% 29.90 in 9.0 mi ESE 5.8 mph - N/A   Clear
7:54 AM 48.0 °F - 46.0 °F 93% 29.90 in 9.0 mi SSE 6.9 mph - N/A   Clear
8:54 AM 55.9 °F - 50.0 °F 80% 29.88 in 10.0 mi SSE 5.8 mph - N/A   Clear
9:54 AM 59.0 °F - 48.0 °F 67% 29.87 in 10.0 mi SW 11.5 mph - 0.01 in   Scattered Clouds
10:54 AM 62.1 °F - 46.0 °F 56% 29.87 in 10.0 mi SSW 16.1 mph 23.0 mph N/A   Clear
11:54 AM 59.0 °F - 43.0 °F 55% 29.89 in 9.0 mi WSW 15.0 mph 23.0 mph N/A   Clear
12:54 PM 60.1 °F - 41.0 °F 49% 29.89 in 10.0 mi WSW 17.3 mph 24.2 mph N/A   Clear
1:54 PM 61.0 °F - 39.0 °F 44% 29.89 in 10.0 mi SW 11.5 mph 25.3 mph N/A   Clear
2:54 PM 61.0 °F - 36.0 °F 39% 29.91 in 10.0 mi West 19.6 mph 24.2 mph N/A   Clear
3:54 PM 59.0 °F - 35.1 °F 41% 29.93 in 10.0 mi West 18.4 mph 26.5 mph N/A   Clear
4:54 PM 55.0 °F - 32.0 °F 42% 29.95 in 10.0 mi West 23.0 mph 36.8 mph N/A   Clear
5:54 PM 52.0 °F - 32.0 °F 47% 29.98 in 10.0 mi West 23.0 mph 31.1 mph N/A   Clear
6:54 PM 48.9 °F - 30.9 °F 50% 29.99 in 10.0 mi West 17.3 mph 27.6 mph N/A   Clear
7:54 PM 46.0 °F 39.6 °F 30.9 °F 56% 30.01 in 10.0 mi West 15.0 mph 24.2 mph N/A   Clear
8:54 PM 45.0 °F 38.2 °F 30.0 °F 56% 30.02 in 10.0 mi West 15.0 mph - N/A   Mostly Cloudy
9:54 PM 44.1 °F 36.8 °F 30.0 °F 58% 30.03 in 10.0 mi West 16.1 mph 33.4 mph N/A   Overcast
10:54 PM 43.0 °F 35.1 °F 28.9 °F 58% 30.03 in 10.0 mi West 17.3 mph 28.8 mph N/A   Overcast
11:54 PM 41.0 °F 33.9 °F 28.0 °F 60% 30.04 in 10.0 mi West 12.7 mph 26.5 mph N/A   Partly Cloudy